When you browse on this site, cookies collect data to enhance your experience and personalize the content and advertising you see.
Visit our Privacy Policy to learn more. By continuing to use the site, you agree to this use of cookies and data.
  • En España
  • Lista de países
  • Para 7 días
  • Temperatura del agua
  • Mapa Satelital
  • El tiempo en el mapa
  • Informadores
  • user-avatar
    Iniciar sesión

    Tiempo cada hora Balchik

    Hoy, 17 Noviembre, Sábado

    Tiempo Temperatura Precipitaciones Viento Presión Humedad
    00:00 -3°C° 0.1 mm 6 mps 748 mmHg 83%
    01:00 -3°C° 0.1 mm 6 mps 748 mmHg 84%
    02:00 -5°C° 0 mm 6 mps 748 mmHg 81%
    03:00 -5°C° 0.1 mm 6 mps 748 mmHg 83%
    04:00 -4°C° 0.1 mm 5 mps 748 mmHg 85%
    05:00 -4°C° 0.1 mm 5 mps 748 mmHg 87%
    06:00 -4°C° 0.2 mm 5 mps 748 mmHg 88%
    07:00 -4°C° 0.2 mm 5 mps 748 mmHg 89%
    08:00 -2°C° 0.2 mm 5 mps 748 mmHg 90%
    09:00 -2°C° 0.4 mm 5 mps 748 mmHg 89%
    10:00 -3°C° 0.4 mm 6 mps 749 mmHg 88%
    11:00 -2°C° 0.4 mm 6 mps 749 mmHg 88%
    12:00 -2°C° 0.2 mm 6 mps 749 mmHg 88%
    13:00 -2°C° 0.2 mm 6 mps 748 mmHg 88%
    14:00 -2°C° 0.2 mm 6 mps 748 mmHg 88%
    15:00 -1°C° 0.1 mm 6 mps 748 mmHg 89%
    16:00 -1°C° 0.1 mm 6 mps 748 mmHg 89%
    17:00 -1°C° 0.1 mm 6 mps 748 mmHg 90%
    18:00 -1°C° 0.2 mm 6 mps 748 mmHg 90%
    19:00 +1°C° 0.2 mm 6 mps 748 mmHg 90%
    20:00 +1°C° 0.2 mm 6 mps 748 mmHg 89%
    21:00 +1°C° 0.2 mm 6 mps 748 mmHg 89%
    22:00 -1°C° 0.2 mm 6 mps 748 mmHg 89%
    23:00 -1°C° 0.2 mm 6 mps 748 mmHg 88%

    Mañana, 18 Noviembre, Domingo

    Tiempo Temperatura Precipitaciones Viento Presión Humedad
    00:00 -1°C° 0.1 mm 6 mps 748 mmHg 88%
    01:00 -1°C° 0.1 mm 6 mps 748 mmHg 89%
    02:00 -1°C° 0.1 mm 6 mps 748 mmHg 89%
    03:00 -1°C° 0 mm 6 mps 747 mmHg 89%
    04:00 0°C° 0 mm 5 mps 747 mmHg 89%
    05:00 0°C° 0 mm 5 mps 747 mmHg 89%
    06:00 0°C° 0 mm 5 mps 747 mmHg 89%
    07:00 -1°C° 0 mm 5 mps 746 mmHg 89%
    08:00 -1°C° 0 mm 4 mps 746 mmHg 89%
    09:00 0°C° 0 mm 4 mps 746 mmHg 87%
    10:00 +1°C° 0 mm 4 mps 746 mmHg 85%
    11:00 +3°C° 0 mm 4 mps 746 mmHg 83%
    12:00 +4°C° 0 mm 4 mps 745 mmHg 81%
    13:00 +3°C° 0 mm 5 mps 745 mmHg 80%
    14:00 +5°C° 0 mm 5 mps 744 mmHg 78%
    15:00 +4°C° 0 mm 4 mps 743 mmHg 81%
    16:00 +4°C° 0 mm 4 mps 743 mmHg 83%
    17:00 +3°C° 0 mm 4 mps 743 mmHg 85%
    18:00 +4°C° 0.1 mm 4 mps 742 mmHg 85%
    19:00 +3°C° 0.1 mm 5 mps 742 mmHg 86%
    20:00 +3°C° 0.1 mm 5 mps 741 mmHg 86%
    21:00 +3°C° 0.4 mm 5 mps 741 mmHg 86%
    22:00 +3°C° 0.4 mm 6 mps 740 mmHg 86%
    23:00 +4°C° 0.4 mm 6 mps 740 mmHg 86%

    Pasado mañana, 19 Noviembre, Lunes

    Tiempo Temperatura Precipitaciones Viento Presión Humedad
    00:00 +4°C° 1.1 mm 6 mps 739 mmHg 88%
    01:00 +4°C° 1.1 mm 6 mps 739 mmHg 89%
    02:00 +4°C° 1.1 mm 7 mps 738 mmHg 91%
    03:00 +4°C° 1.6 mm 7 mps 737 mmHg 91%
    04:00 +4°C° 1.6 mm 7 mps 737 mmHg 92%
    05:00 +4°C° 1.6 mm 8 mps 736 mmHg 92%
    06:00 +5°C° 2.6 mm 8 mps 736 mmHg 93%
    07:00 +5°C° 2.6 mm 7 mps 735 mmHg 93%
    08:00 +5°C° 2.6 mm 7 mps 735 mmHg 93%
    09:00 +5°C° 0.6 mm 6 mps 735 mmHg 93%
    10:00 +7°C° 0.6 mm 6 mps 735 mmHg 93%
    11:00 +7°C° 0.6 mm 5 mps 735 mmHg 93%
    12:00 +7°C° 0.1 mm 6 mps 735 mmHg 91%
    13:00 +7°C° 0.1 mm 6 mps 735 mmHg 89%
    14:00 +5°C° 0.1 mm 7 mps 736 mmHg 88%
    15:00 +4°C° 0 mm 7 mps 736 mmHg 87%
    16:00 +3°C° 0 mm 7 mps 737 mmHg 87%
    17:00 +2°C° 0 mm 6 mps 737 mmHg 87%
    18:00 +2°C° 0 mm 6 mps 738 mmHg 87%
    19:00 +1°C° 0 mm 5 mps 739 mmHg 87%
    20:00 +1°C° 0 mm 5 mps 740 mmHg 87%
    21:00 0°C° 0 mm 5 mps 740 mmHg 88%
    22:00 0°C° 0 mm 4 mps 741 mmHg 88%
    23:00 0°C° 0 mm 4 mps 741 mmHg 88%

    20 Noviembre, Martes

    Tiempo Temperatura Precipitaciones Viento Presión Humedad
    00:00 +1°C° 0 mm 3 mps 742 mmHg 89%
    01:00 +1°C° 0 mm 3 mps 742 mmHg 90%
    02:00 0°C° 0 mm 3 mps 742 mmHg 92%
    03:00 +1°C° 0 mm 2 mps 742 mmHg 92%
    04:00 +1°C° 0 mm 2 mps 742 mmHg 93%
    05:00 +1°C° 0 mm 2 mps 742 mmHg 93%
    06:00 +1°C° 0 mm 2 mps 743 mmHg 93%
    07:00 +1°C° 0 mm 2 mps 743 mmHg 92%
    08:00 +2°C° 0 mm 2 mps 743 mmHg 91%
    09:00 +3°C° 0 mm 2 mps 743 mmHg 87%
    10:00 +3°C° 0 mm 3 mps 743 mmHg 83%
    11:00 +5°C° 0 mm 4 mps 743 mmHg 79%
    12:00 +6°C° 0 mm 4 mps 743 mmHg 80%
    13:00 +6°C° 0 mm 4 mps 742 mmHg 81%
    14:00 +7°C° 0 mm 4 mps 742 mmHg 82%
    15:00 +7°C° 0 mm 5 mps 742 mmHg 85%
    16:00 +7°C° 0 mm 5 mps 741 mmHg 88%
    17:00 +7°C° 0 mm 5 mps 741 mmHg 91%
    18:00 +8°C° 0.1 mm 5 mps 741 mmHg 92%
    19:00 +8°C° 0.1 mm 6 mps 740 mmHg 93%
    20:00 +9°C° 0.1 mm 6 mps 740 mmHg 94%
    21:00 +9°C° 0.4 mm 6 mps 740 mmHg 94%
    22:00 +9°C° 0.4 mm 6 mps 739 mmHg 95%
    23:00 +10°C° 0.4 mm 6 mps 739 mmHg 95%

    21 Noviembre, Miércoles

    Tiempo Temperatura Precipitaciones Viento Presión Humedad
    00:00 +10°C° 1 mm 6 mps 738 mmHg 95%
    01:00 +10°C° 1 mm 5 mps 738 mmHg 95%
    02:00 +12°C° 1 mm 5 mps 737 mmHg 95%
    03:00 +12°C° 1.1 mm 5 mps 737 mmHg 95%
    04:00 +12°C° 1.1 mm 5 mps 736 mmHg 94%
    05:00 +12°C° 1.1 mm 5 mps 736 mmHg 94%
    06:00 +12°C° 0.4 mm 4 mps 736 mmHg 93%
    07:00 +12°C° 0.4 mm 4 mps 736 mmHg 93%
    08:00 +12°C° 0.4 mm 4 mps 736 mmHg 93%
    09:00 +13°C° 0.3 mm 4 mps 736 mmHg 90%
    10:00 +13°C° 0.3 mm 5 mps 736 mmHg 87%
    11:00 +13°C° 0.3 mm 5 mps 736 mmHg 85%
    12:00 +13°C° 0 mm 5 mps 736 mmHg 83%
    13:00 +13°C° 0 mm 5 mps 736 mmHg 82%
    14:00 +12°C° 0 mm 5 mps 736 mmHg 80%
    15:00 +12°C° 0 mm 5 mps 736 mmHg 82%
    16:00 +10°C° 0 mm 5 mps 737 mmHg 84%
    17:00 +10°C° 0 mm 4 mps 737 mmHg 86%
    18:00 +10°C° 0 mm 4 mps 737 mmHg 88%
    19:00 +8°C° 0 mm 4 mps 738 mmHg 90%
    20:00 +8°C° 0 mm 5 mps 738 mmHg 92%
    21:00 +7°C° 0 mm 5 mps 739 mmHg 91%
    22:00 +7°C° 0 mm 5 mps 739 mmHg 90%
    23:00 +7°C° 0 mm 5 mps 740 mmHg 89%

    22 Noviembre, Jueves

    Tiempo Temperatura Precipitaciones Viento Presión Humedad
    00:00 +6°C° 0 mm 5 mps 740 mmHg 89%
    01:00 +6°C° 0 mm 5 mps 740 mmHg 89%
    02:00 +5°C° 0 mm 5 mps 741 mmHg 89%
    03:00 +5°C° 0 mm 5 mps 741 mmHg 88%
    04:00 +5°C° 0 mm 4 mps 741 mmHg 88%
    05:00 +5°C° 0 mm 4 mps 742 mmHg 88%
    06:00 +3°C° 0 mm 5 mps 742 mmHg 87%
    07:00 +3°C° 0 mm 5 mps 743 mmHg 86%
    08:00 +3°C° 0 mm 5 mps 743 mmHg 86%
    09:00 +3°C° 0 mm 5 mps 743 mmHg 83%
    10:00 +5°C° 0 mm 4 mps 744 mmHg 80%
    11:00 +5°C° 0 mm 4 mps 744 mmHg 77%
    12:00 +5°C° 0 mm 4 mps 744 mmHg 75%
    13:00 +5°C° 0 mm 5 mps 744 mmHg 74%
    14:00 +6°C° 0 mm 5 mps 744 mmHg 72%
    15:00 +5°C° 0 mm 4 mps 745 mmHg 74%
    16:00 +5°C° 0 mm 4 mps 745 mmHg 75%
    17:00 +4°C° 0 mm 4 mps 745 mmHg 76%
    18:00 +4°C° 0 mm 4 mps 745 mmHg 77%
    19:00 +3°C° 0 mm 4 mps 746 mmHg 78%
    20:00 +3°C° 0 mm 4 mps 746 mmHg 79%
    21:00 +3°C° 0 mm 4 mps 746 mmHg 79%
    22:00 +1°C° 0 mm 4 mps 746 mmHg 78%
    23:00 +1°C° 0 mm 4 mps 747 mmHg 77%
    Mostrar más